Weather History for Topeka Forbes, KS

Change the Weather History Date:

Thursday, July 25, 2013

  Actual Average Record
Temperature  
Mean Temperature 73 °F -  
Max Temperature 82 °F 89 °F 107 °F (2012)
Min Temperature 64 °F 67 °F 53 °F (1975)
Cooling Degree Days 8    
Growing Degree Days 23 (Base 50)    
Moisture  
Dew Point 65 °F    
Average Humidity 77    
Maximum Humidity 91    
Minimum Humidity 54    
Precipitation  
Precipitation 0.09 in - - ()
Sea Level Pressure  
Sea Level Pressure 30.03 in    
Wind  
Wind Speed 4 mph (SE)    
Max Wind Speed 10 mph    
Max Gust Speed -    
Visibility 10 miles    
Events Rain    
Averages and records for this station are not official NWS values.
T = Trace of Precipitation, MM = Missing Value Source: NWS Daily Summary

Daily Weather History Graph

Daily Weather History Graph

Search for Another Location

Airport:

Trip Planner

Search our weather history database for the weather conditions in past years. The results will help you decide how hot, cold, wet, or windy it might be!

Date:

Astronomy

Jul. 25, 2013 Rise Set
Actual Time 6:17 AM CDT 8:40 PM CDT
Civil Twilight 5:47 AM CDT 9:10 PM CDT
Nautical Twilight 5:09 AM CDT 9:47 PM CDT
Astronomical Twilight 4:28 AM CDT 10:28 PM CDT
Moon 10:24 PM CDT (7/25) 9:45 AM CDT (7/25)
Length of Visible Light 15h 23m
Length of Day
14h 22m
Waning Gibbous, 88% of the Moon is Illuminated
Jul 25
Waning Gibbous
Jul 29
Last Quarter
Aug 6
New
Aug 14
First Quarter
Aug 20
Full

Hourly Weather History & Observations

Time (CDT) Temp. Heat Index Dew Point Humidity Pressure Visibility Wind Dir Wind Speed Gust Speed Precip Events Conditions
12:53 AM 68.0 °F - 61.0 °F 78% 30.04 in 10.0 mi Calm Calm - N/A   Clear
1:53 AM 66.9 °F - 61.0 °F 81% 30.04 in 10.0 mi Calm Calm - N/A   Clear
2:53 AM 64.9 °F - 61.0 °F 87% 30.04 in 10.0 mi SE 3.5 mph - N/A   Clear
3:53 AM 64.9 °F - 60.1 °F 84% 30.03 in 10.0 mi ESE 3.5 mph - N/A   Scattered Clouds
4:53 AM 64.9 °F - 60.1 °F 84% 30.03 in 10.0 mi ESE 3.5 mph - N/A   Clear
5:53 AM 64.0 °F - 59.0 °F 84% 30.03 in 10.0 mi SE 3.5 mph - N/A   Clear
6:53 AM 64.0 °F - 59.0 °F 84% 30.03 in 10.0 mi Calm Calm - N/A   Partly Cloudy
7:53 AM 68.0 °F - 61.0 °F 78% 30.04 in 10.0 mi ESE 6.9 mph - N/A   Scattered Clouds
8:53 AM 73.9 °F - 61.0 °F 64% 30.07 in 10.0 mi South 5.8 mph - N/A   Clear
9:53 AM 75.9 °F - 61.0 °F 60% 30.06 in 10.0 mi SSE 8.1 mph - N/A   Clear
10:53 AM 78.1 °F - 62.1 °F 58% 30.06 in 10.0 mi SSE 5.8 mph - N/A   Clear
11:53 AM 80.1 °F 81.2 °F 62.1 °F 54% 30.06 in 10.0 mi SSE 8.1 mph - N/A   Clear
12:53 PM 80.1 °F 81.5 °F 63.0 °F 56% 30.04 in 10.0 mi SSE 10.4 mph - N/A   Clear
1:53 PM 80.1 °F 81.7 °F 64.0 °F 58% 30.04 in 10.0 mi SE 4.6 mph - 0.00 in   Clear
2:53 PM 82.0 °F 83.4 °F 64.0 °F 54% 30.05 in 10.0 mi South 4.6 mph - 0.00 in Rain Light Rain
3:53 PM 78.1 °F - 71.1 °F 79% 30.07 in 10.0 mi North 3.5 mph - 0.01 in Rain Light Rain
4:53 PM 75.9 °F - 70.0 °F 82% 30.05 in 10.0 mi ESE 3.5 mph - 0.06 in Rain Light Rain
5:53 PM 75.0 °F - 71.1 °F 87% 30.04 in 10.0 mi ESE 3.5 mph - 0.01 in Rain Light Rain
6:53 PM 75.0 °F - 71.1 °F 87% 30.01 in 10.0 mi ESE 5.8 mph - 0.00 in   Mostly Cloudy
7:53 PM 73.9 °F - 70.0 °F 87% 30.00 in 10.0 mi SE 6.9 mph - 0.00 in   Clear
8:53 PM 73.0 °F - 70.0 °F 90% 30.00 in 10.0 mi Calm Calm - N/A   Overcast
9:53 PM 73.0 °F - 70.0 °F 90% 30.00 in 8.0 mi ESE 8.1 mph - 0.00 in Rain Light Rain
10:53 PM 72.0 °F - 69.1 °F 91% 30.00 in 10.0 mi ESE 6.9 mph - 0.01 in   Mostly Cloudy
11:53 PM 72.0 °F - 69.1 °F 91% 29.99 in 10.0 mi SE 4.6 mph - N/A   Mostly Cloudy